Time,TemperatureF,DewpointF,PressureIn,WindDirection,WindDirectionDegrees,WindSpeedMPH,WindSpeedGustMPH,Humidity,HourlyPrecipIn,Conditions,Clouds,dailyrainin,SoftwareType,DateUTC
2013-03-26 00:03:00,34.6,27.0,30.13,West,280,8.0,-999.0,74,-99.99,,,0.00,weatherlink.com 1.10,2013-03-26 05:03:00,
2013-03-26 00:18:00,34.4,27.0,30.14,NW,313,6.0,-999.0,75,-99.99,,,0.00,weatherlink.com 1.10,2013-03-26 05:18:00,
2013-03-26 00:33:00,34.3,27.0,30.14,SW,232,9.0,-999.0,76,-99.99,,,0.00,weatherlink.com 1.10,2013-03-26 05:33:00,
2013-03-26 00:48:00,34.3,27.0,30.14,SW,233,8.0,-999.0,75,-99.99,,,0.00,weatherlink.com 1.10,2013-03-26 05:48:00,
2013-03-26 01:03:00,34.1,27.0,30.14,West,273,1.0,-999.0,75,-99.99,,,0.00,weatherlink.com 1.10,2013-03-26 06:03:00,
2013-03-26 01:18:00,34.2,27.0,30.14,West,281,5.0,-999.0,74,-99.99,,,0.00,weatherlink.com 1.10,2013-03-26 06:18:00,
2013-03-26 01:33:00,34.2,27.0,30.14,NW,309,1.0,-999.0,74,-99.99,,,0.00,weatherlink.com 1.10,2013-03-26 06:33:00,
2013-03-26 01:48:00,34.1,27.0,30.14,WNW,285,3.0,-999.0,75,-99.99,,,0.00,weatherlink.com 1.10,2013-03-26 06:48:00,
2013-03-26 02:03:00,34.1,26.0,30.13,WNW,296,8.0,-999.0,73,-99.99,,,0.00,weatherlink.com 1.10,2013-03-26 07:03:00,
2013-03-26 02:18:00,33.9,26.0,30.13,WNW,296,0.0,-999.0,74,-99.99,,,0.00,weatherlink.com 1.10,2013-03-26 07:18:00,
2013-03-26 02:33:00,33.8,26.0,30.13,West,271,6.0,-999.0,74,-99.99,,,0.00,weatherlink.com 1.10,2013-03-26 07:33:00,
2013-03-26 02:48:00,33.8,26.0,30.13,West,265,0.0,-999.0,74,-99.99,,,0.00,weatherlink.com 1.10,2013-03-26 07:48:00,
2013-03-26 03:03:00,33.7,26.0,30.12,WNW,298,6.0,-999.0,73,-99.99,,,0.00,weatherlink.com 1.10,2013-03-26 08:03:00,
2013-03-26 03:18:00,33.8,26.0,30.12,NW,304,6.0,-999.0,74,-99.99,,,0.00,weatherlink.com 1.10,2013-03-26 08:18:00,
2013-03-26 03:33:00,33.9,26.0,30.12,NW,321,9.0,-999.0,74,-99.99,,,0.00,weatherlink.com 1.10,2013-03-26 08:33:00,
2013-03-26 03:48:00,33.9,26.0,30.12,NNW,327,11.0,-999.0,73,-99.99,,,0.00,weatherlink.com 1.10,2013-03-26 08:48:00,
2013-03-26 04:03:00,33.9,26.0,30.12,WNW,290,18.0,-999.0,74,-99.99,,,0.00,weatherlink.com 1.10,2013-03-26 09:03:00,
2013-03-26 04:18:00,33.7,26.0,30.12,NW,313,8.0,-999.0,74,-99.99,,,0.00,weatherlink.com 1.10,2013-03-26 09:18:00,
2013-03-26 04:33:00,33.7,26.0,30.12,NW,304,13.0,-999.0,74,-99.99,,,0.00,weatherlink.com 1.10,2013-03-26 09:33:00,
2013-03-26 04:48:00,33.7,27.0,30.12,NW,315,8.0,-999.0,76,-99.99,,,0.00,weatherlink.com 1.10,2013-03-26 09:48:00,
2013-03-26 05:03:00,33.7,26.0,30.13,NW,311,12.0,-999.0,74,-99.99,,,0.00,weatherlink.com 1.10,2013-03-26 10:03:00,
2013-03-26 05:18:00,33.5,26.0,30.14,WNW,286,14.0,-999.0,73,-99.99,,,0.00,weatherlink.com 1.10,2013-03-26 10:18:00,
2013-03-26 05:33:00,33.5,26.0,30.14,NW,322,16.0,-999.0,75,-99.99,,,0.00,weatherlink.com 1.10,2013-03-26 10:33:00,
2013-03-26 05:48:00,33.3,26.0,30.15,NW,315,14.0,-999.0,75,-99.99,,,0.00,weatherlink.com 1.10,2013-03-26 10:48:00,
2013-03-26 06:03:00,33.1,26.0,30.15,WNW,295,18.0,-999.0,75,-99.99,,,0.00,weatherlink.com 1.10,2013-03-26 11:03:00,
2013-03-26 06:18:00,33.2,26.0,30.16,West,259,10.0,-999.0,75,-99.99,,,0.00,weatherlink.com 1.10,2013-03-26 11:18:00,
2013-03-26 06:33:00,33.0,26.0,30.16,NNW,327,8.0,-999.0,76,-99.99,,,0.00,weatherlink.com 1.10,2013-03-26 11:33:00,
2013-03-26 06:48:00,32.8,26.0,30.17,NW,309,11.0,-999.0,76,-99.99,,,0.00,weatherlink.com 1.10,2013-03-26 11:48:00,
2013-03-26 07:03:00,32.8,26.0,30.17,NW,304,12.0,-999.0,76,-99.99,,,0.00,weatherlink.com 1.10,2013-03-26 12:03:00,
2013-03-26 07:18:00,32.8,26.0,30.18,NW,306,11.0,-999.0,76,-99.99,,,0.00,weatherlink.com 1.10,2013-03-26 12:18:00,
2013-03-26 07:33:00,32.7,26.0,30.18,NW,324,10.0,-999.0,77,-99.99,,,0.00,weatherlink.com 1.10,2013-03-26 12:33:00,
2013-03-26 07:48:00,32.9,26.0,30.19,WNW,291,13.0,-999.0,76,-99.99,,,0.00,weatherlink.com 1.10,2013-03-26 12:48:00,
2013-03-26 08:03:00,32.8,26.0,30.20,WNW,293,15.0,-999.0,76,-99.99,,,0.00,weatherlink.com 1.10,2013-03-26 13:03:00,
2013-03-26 08:18:00,32.8,26.0,30.20,WNW,284,7.0,-999.0,76,-99.99,,,0.00,weatherlink.com 1.10,2013-03-26 13:18:00,
2013-03-26 08:33:00,33.1,27.0,30.21,NW,314,5.0,-999.0,77,-99.99,,,0.00,weatherlink.com 1.10,2013-03-26 13:33:00,
2013-03-26 08:48:00,33.3,26.0,30.22,WNW,283,2.0,-999.0,75,-99.99,,,0.00,weatherlink.com 1.10,2013-03-26 13:48:00,
2013-03-26 09:03:00,33.8,26.0,30.22,NNW,329,9.0,-999.0,74,-99.99,,,0.00,weatherlink.com 1.10,2013-03-26 14:03:00,
2013-03-26 09:18:00,33.9,26.0,30.23,NW,309,12.0,-999.0,74,-99.99,,,0.00,weatherlink.com 1.10,2013-03-26 14:18:00,
2013-03-26 09:33:00,34.4,26.0,30.23,NW,304,8.0,-999.0,72,-99.99,,,0.00,weatherlink.com 1.10,2013-03-26 14:33:00,
2013-03-26 09:48:00,35.5,27.0,30.23,West,277,10.0,-999.0,70,-99.99,,,0.00,weatherlink.com 1.10,2013-03-26 14:48:00,
2013-03-26 10:03:00,35.5,27.0,30.23,WNW,283,3.0,-999.0,70,-99.99,,,0.00,weatherlink.com 1.10,2013-03-26 15:03:00,
2013-03-26 10:18:00,35.7,27.0,30.24,West,275,10.0,-999.0,71,-99.99,,,0.00,weatherlink.com 1.10,2013-03-26 15:18:00,
2013-03-26 10:33:00,35.7,26.0,30.24,West,268,11.0,-999.0,67,-99.99,,,0.00,weatherlink.com 1.10,2013-03-26 15:33:00,
2013-03-26 10:48:00,35.8,27.0,30.25,NW,304,8.0,-999.0,70,-99.99,,,0.00,weatherlink.com 1.10,2013-03-26 15:48:00,
2013-03-26 11:03:00,36.3,27.0,30.25,NW,312,14.0,-999.0,69,-99.99,,,0.00,weatherlink.com 1.10,2013-03-26 16:03:00,
2013-03-26 11:18:00,36.1,26.0,30.25,West,278,8.0,-999.0,68,-99.99,,,0.00,weatherlink.com 1.10,2013-03-26 16:18:00,
2013-03-26 11:33:00,36.6,26.0,30.26,NW,323,14.0,-999.0,66,-99.99,,,0.00,weatherlink.com 1.10,2013-03-26 16:33:00,
2013-03-26 11:48:00,36.7,25.0,30.26,WNW,300,11.0,-999.0,64,-99.99,,,0.00,weatherlink.com 1.10,2013-03-26 16:48:00,
2013-03-26 12:03:00,36.8,26.0,30.26,NNW,339,12.0,-999.0,65,-99.99,,,0.00,weatherlink.com 1.10,2013-03-26 17:03:00,
2013-03-26 12:18:00,37.2,27.0,30.27,NW,323,13.0,-999.0,66,-99.99,,,0.00,weatherlink.com 1.10,2013-03-26 17:18:00,
2013-03-26 12:33:00,38.2,26.0,30.27,WNW,303,5.0,-999.0,63,-99.99,,,0.00,weatherlink.com 1.10,2013-03-26 17:33:00,
2013-03-26 12:48:00,37.5,26.0,30.26,NW,307,10.0,-999.0,63,-99.99,,,0.00,weatherlink.com 1.10,2013-03-26 17:48:00,
2013-03-26 13:03:00,37.4,27.0,30.26,NW,323,8.0,-999.0,65,-99.99,,,0.00,weatherlink.com 1.10,2013-03-26 18:03:00,
2013-03-26 13:18:00,38.2,26.0,30.26,NW,315,8.0,-999.0,63,-99.99,,,0.00,weatherlink.com 1.10,2013-03-26 18:18:00,
2013-03-26 13:33:00,38.8,27.0,30.26,NW,309,9.0,-999.0,63,-99.99,,,0.00,weatherlink.com 1.10,2013-03-26 18:33:00,
2013-03-26 13:48:00,38.5,27.0,30.26,West,276,12.0,-999.0,64,-99.99,,,0.00,weatherlink.com 1.10,2013-03-26 18:48:00,
2013-03-26 14:03:00,38.4,26.0,30.26,NW,321,7.0,-999.0,61,-99.99,,,0.00,weatherlink.com 1.10,2013-03-26 19:03:00,
2013-03-26 14:18:00,38.5,28.0,30.26,NW,321,0.0,-999.0,65,-99.99,,,0.00,weatherlink.com 1.10,2013-03-26 19:18:00,
2013-03-26 14:34:00,38.1,27.0,30.26,West,263,8.0,-999.0,65,-99.99,,,0.00,weatherlink.com 1.10,2013-03-26 19:34:00,
2013-03-26 14:48:00,38.7,27.0,30.26,WSW,251,5.0,-999.0,62,-99.99,,,0.00,weatherlink.com 1.10,2013-03-26 19:48:00,
2013-03-26 15:03:00,38.9,28.0,30.26,NW,315,12.0,-999.0,64,-99.99,,,0.00,weatherlink.com 1.10,2013-03-26 20:03:00,
2013-03-26 15:18:00,39.3,27.0,30.25,West,270,10.0,-999.0,62,-99.99,,,0.00,weatherlink.com 1.10,2013-03-26 20:18:00,
2013-03-26 15:33:00,39.1,29.0,30.26,WNW,299,11.0,-999.0,66,-99.99,,,0.00,weatherlink.com 1.10,2013-03-26 20:33:00,
2013-03-26 15:48:00,38.9,27.0,30.25,NW,318,9.0,-999.0,62,-99.99,,,0.00,weatherlink.com 1.10,2013-03-26 20:48:00,
2013-03-26 16:03:00,39.4,27.0,30.25,NW,322,11.0,-999.0,61,-99.99,,,0.00,weatherlink.com 1.10,2013-03-26 21:03:00,
2013-03-26 16:18:00,39.2,27.0,30.26,West,281,7.0,-999.0,61,-99.99,,,0.00,weatherlink.com 1.10,2013-03-26 21:18:00,
2013-03-26 16:33:00,39.3,27.0,30.26,NW,309,14.0,-999.0,61,-99.99,,,0.00,weatherlink.com 1.10,2013-03-26 21:33:00,
2013-03-26 16:48:00,39.6,28.0,30.26,NNW,344,7.0,-999.0,63,-99.99,,,0.00,weatherlink.com 1.10,2013-03-26 21:48:00,
2013-03-26 17:03:00,39.5,27.0,30.26,NW,315,5.0,-999.0,62,-99.99,,,0.00,weatherlink.com 1.10,2013-03-26 22:03:00,
2013-03-26 17:19:00,39.5,29.0,30.26,NW,309,13.0,-999.0,65,-99.99,,,0.00,weatherlink.com 1.10,2013-03-26 22:19:00,
2013-03-26 17:33:00,39.5,29.0,30.27,West,276,5.0,-999.0,65,-99.99,,,0.00,weatherlink.com 1.10,2013-03-26 22:33:00,
2013-03-26 17:48:00,39.4,28.0,30.27,NW,315,7.0,-999.0,65,-99.99,,,0.00,weatherlink.com 1.10,2013-03-26 22:48:00,
2013-03-26 18:03:00,39.4,28.0,30.28,NW,306,12.0,-999.0,63,-99.99,,,0.00,weatherlink.com 1.10,2013-03-26 23:03:00,
2013-03-26 18:18:00,39.4,28.0,30.28,NW,322,9.0,-999.0,63,-99.99,,,0.00,weatherlink.com 1.10,2013-03-26 23:18:00,
2013-03-26 18:33:00,39.2,27.0,30.28,NW,311,7.0,-999.0,63,-99.99,,,0.00,weatherlink.com 1.10,2013-03-26 23:33:00,
2013-03-26 18:48:00,38.8,27.0,30.28,NW,321,10.0,-999.0,64,-99.99,,,0.00,weatherlink.com 1.10,2013-03-26 23:48:00,
2013-03-26 19:03:00,38.7,28.0,30.29,West,271,4.0,-999.0,65,-99.99,,,0.00,weatherlink.com 1.10,2013-03-27 00:03:00,
2013-03-26 19:18:00,38.6,27.0,30.29,NW,313,9.0,-999.0,64,-99.99,,,0.00,weatherlink.com 1.10,2013-03-27 00:18:00,
2013-03-26 19:33:00,38.5,28.0,30.30,West,277,7.0,-999.0,65,-99.99,,,0.00,weatherlink.com 1.10,2013-03-27 00:33:00,
2013-03-26 19:48:00,38.4,28.0,30.30,NW,304,2.0,-999.0,66,-99.99,,,0.00,weatherlink.com 1.10,2013-03-27 00:48:00,
2013-03-26 20:04:00,38.2,28.0,30.30,WNW,290,5.0,-999.0,66,-99.99,,,0.00,weatherlink.com 1.10,2013-03-27 01:04:00,
2013-03-26 20:18:00,38.0,28.0,30.31,WNW,286,5.0,-999.0,67,-99.99,,,0.00,weatherlink.com 1.10,2013-03-27 01:18:00,
2013-03-26 20:35:00,37.9,28.0,30.31,WNW,302,4.0,-999.0,67,-99.99,,,0.00,weatherlink.com 1.10,2013-03-27 01:35:00,
2013-03-26 20:48:00,37.8,28.0,30.31,NW,305,6.0,-999.0,67,-99.99,,,0.00,weatherlink.com 1.10,2013-03-27 01:48:00,
2013-03-26 21:03:00,37.7,28.0,30.32,WNW,302,2.0,-999.0,68,-99.99,,,0.00,weatherlink.com 1.10,2013-03-27 02:03:00,
2013-03-26 21:18:00,37.6,28.0,30.32,NW,307,0.0,-999.0,69,-99.99,,,0.00,weatherlink.com 1.10,2013-03-27 02:18:00,
2013-03-26 21:33:00,37.6,28.0,30.32,NW,307,4.0,-999.0,69,-99.99,,,0.00,weatherlink.com 1.10,2013-03-27 02:33:00,
2013-03-26 21:48:00,37.8,29.0,30.32,NNW,331,6.0,-999.0,70,-99.99,,,0.00,weatherlink.com 1.10,2013-03-27 02:48:00,
2013-03-26 22:03:00,37.8,28.0,30.33,NW,313,0.0,-999.0,69,-99.99,,,0.00,weatherlink.com 1.10,2013-03-27 03:03:00,
2013-03-26 22:18:00,37.7,29.0,30.33,WNW,285,0.0,-999.0,70,-99.99,,,0.00,weatherlink.com 1.10,2013-03-27 03:18:00,
2013-03-26 22:33:00,37.9,29.0,30.33,NW,321,1.0,-999.0,69,-99.99,,,0.00,weatherlink.com 1.10,2013-03-27 03:33:00,
2013-03-26 22:48:00,37.7,28.0,30.33,WNW,303,0.0,-999.0,69,-99.99,,,0.00,weatherlink.com 1.10,2013-03-27 03:48:00,
2013-03-26 23:03:00,37.6,27.0,30.33,NW,314,4.0,-999.0,67,-99.99,,,0.00,weatherlink.com 1.10,2013-03-27 04:03:00,
2013-03-26 23:18:00,37.5,28.0,30.32,NW,318,8.0,-999.0,68,-99.99,,,0.00,weatherlink.com 1.10,2013-03-27 04:18:00,
2013-03-26 23:33:00,37.7,28.0,30.32,NW,314,5.0,-999.0,68,-99.99,,,0.00,weatherlink.com 1.10,2013-03-27 04:33:00,
2013-03-26 23:48:00,37.4,27.0,30.33,NW,310,5.0,-999.0,67,-99.99,,,0.00,weatherlink.com 1.10,2013-03-27 04:48:00,